Location: Skalnate Pleso
(49.1889°N, 20.2450°E)
Time: 11:41:34
(UTC+02:00)

COSMOS 2428 - Pass Details

Date: 27 February 2020
Orbit: 846 x 856 km, 70.9° (Epoch: 08 April)

Event Time Altitude Azimuth Distance (km) Brightness Sun altitude
Exits shadow 01:46:38 15° 11° (N) 2,154 5.2 -42.9°
Drops below altitude 10° 01:47:43 10° 17° (NNE) 2,500 5.7 -42.7°
Sets 01:50:25 0° 26° (NNE) 3,439 6.6 -42.5°
